Tracking 29967 objects as of 6-Dec-2024
HD Live streaming from Space Station
objects crossing your sky now

STARLINK-32472

Track STARLINK-32472 now!
10-day predictions
STARLINK-32472 is classified as:


NORAD ID: 61846
Int'l Code: 2024-202B
Perigee: 450.1 km
Apogee: 452.2 km
Inclination: 43.0 °
Period: 93.5 minutes
Semi major axis: 6822 km
RCS: Unknown
Launch date: November 7, 2024
Source: United States (US)
Launch site: AIR FORCE EASTERN TEST RANGE (AFETR)
Your satellite tracking list
Your tracking list is empty




NASA's NSSDC Master Catalog

Two Line Element Set (TLE):
1 61846U 24202B   24340.83335648 -.00039685  00000-0 -94775-3 0  9996
2 61846  43.0003 320.8151 0001555 276.8077 289.0014 15.40697638  5604
Source of the keplerian elements: AFSPC